Temperature
7 7 7 7 7 7 7 8 9 10 10 11 11 11 10 9 8 8 8 8 8 8 8 9 9 9 9 9 9 8 8 8 8 8 7 7 7 7 7 6 6 6 6 6
7 7 7 7 7 7 7 8 8 9 9 10 10 9 9 9 8 8 8 8 8 8 8 8 9 9 8 8 8 8 8 7 7 7 6 6 6 6 5 5 5 5 5 5
7 7 7 7 8 8 8 8 8 9 10 10 10 9 9 9 8 8 8 8 8 8 8 8 9 8 8 8 8 7 7 6 6 6 5 5 5 5 5 4 4 4 4 4
7 7 7 8 8 8 8 8 8 8 9 9 9 8 8 8 8 8 8 8 8 8 8 8 8 8 8 7 7 7 6 6 5 5 5 4 4 4 4 3 3 3 3 3
7 7 8 8 8 7 7 8 8 8 8 8 8 8 8 7 7 7 8 8 8 8 8 8 8 8 8 7 7 6 6 6 5 5 4 4 4 3 3 3 3 2 2 2
6 7 7 8 7 7 7 8 8 7 8 8 8 9 9 7 7 7 7 8 8 8 8 8 8 8 7 7 6 6 6 5 4 4 4 3 3 3 2 2 2 2 2 2
6 6 7 7 6 7 7 7 6 6 6 7 7 7 6 6 6 7 7 7 7 7 7 7 7 7 7 6 6 5 5 4 4 3 3 3 2 2 2 1 1 1 1 1
6 6 6 6 6 6 6 6 5 5 5 5 5 5 6 6 6 6 7 7 7 7 7 7 6 6 6 6 5 5 4 4 3 3 2 2 2 1 1 1 1 1 0 0
6 6 5 4 5 4 4 4 4 5 5 5 5 5 5 6 6 6 6 6 6 6 6 6 6 5 5 5 5 4 4 3 3 2 2 2 1 1 1 1 0 0 0 0
4 5 4 4 4 4 4 4 4 4 4 5 5 5 5 5 5 5 5 5 5 5 5 5 5 5 4 4 4 4 3 3 2 2 1 1 1 1 1 0 0 0 -0 -0
4 4 4 4 3 3 3 3 3 4 4 4 4 5 5 5 5 5 5 5 5 5 4 4 4 4 4 3 3 3 2 2 2 1 1 1 1 1 0 0 -0 -0 -0 -0
3 3 3 3 2 2 2 2 3 3 3 4 4 4 4 4 4 4 4 4 4 4 4 4 3 3 3 3 3 2 2 2 1 1 1 1 1 0 0 -0 -0 -0 -0 -1
1 1 1 1 1 1 1 2 2 2 3 3 3 3 3 3 3 3 3 3 3 3 3 3 3 3 2 2 2 2 2 2 1 1 1 1 0 0 0 -0 -0 -1 -1 -1
0 0 1 1 1 1 1 1 2 2 2 2 2 2 2 2 2 3 3 2 2 2 2 2 2 2 2 2 2 1 1 1 1 1 0 0 0 -0 -0 -1 -1 -1 -1 -1
-0 -0 -0 0 0 0 0 1 1 1 1 1 1 2 2 2 2 2 2 2 2 1 1 1 1 1 1 1 1 1 1 1 1 0 0 -0 -0 -1 -1 -1 -1 -1 -1 -1
-1 -0 -0 -0 -0 -0 -0 0 0 0 0 1 1 1 1 1 1 1 1 1 1 1 1 1 1 1 1 1 1 1 0 0 0 -0 -0 -0 -1 -1 -1 -1 -1 -1 -1 -1
-1 -1 -1 -1 -1 -1 -0 -0 -0 -0 0 0 0 0 0 0 0 0 0 0 0 0 0 0 0 0 0 0 0 0 -0 -0 -0 -0 -1 -1 -1 -1 -1 -1 -1 -1 -1 -1
-1 -1 -1 -1 -1 -1 -1 -1 -1 -1 -1 -1 -1 -0 -0 -0 -0 -0 -0 -1 -1 -1 -1 -1 -0 -0 -0 -0 -0 -0 -0 -1 -1 -1 -1 -1 -1 -1 -1 -1 -1 -1 -1 -1
-2 -1 -1 -1 -1 -1 -1 -1 -1 -1 -1 -1 -1 -1 -1 -1 -1 -1 -1 -1 -1 -1 -1 -1 -1 -1 -1 -1 -1 -1 -1 -1 -1 -1 -1 -1 -1 -1 -1 -1 -1 -1 -1 -1
-2 -2 -2 -2 -2 -2 -2 -2 -1 -1 -2 -2 -2 -2 -2 -2 -2 -1 -1 -2 -2 -2 -2 -1 -1 -1 -1 -1 -1 -1 -1 -1 -1 -1 -1 -2 -2 -2 -2 -2 -2 -2 -2 -2
-2 -2 -2 -2 -2 -2 -2 -2 -2 -2 -2 -2 -2 -2 -2 -2 -2 -2 -2 -2 -2 -2 -2 -2 -2 -2 -2 -2 -2 -2 -2 -2 -2 -2 -2 -2 -2 -2 -2 -2 -2 -2 -2 -2
-2 -3 -3 -3 -3 -3 -3 -3 -3 -3 -3 -3 -3 -3 -3 -3 -3 -2 -3 -3 -3 -2 -2 -2 -2 -2 -2 -2 -2 -2 -2 -2 -3 -2 -2 -2 -2 -2 -2 -3 -3 -3 -3 -3
-3 -3 -3 -3 -3 -3 -3 -3 -3 -3 -3 -3 -3 -3 -3 -3 -3 -3 -3 -3 -3 -3 -3 -3 -3 -3 -3 -3 -3 -3 -3 -3 -3 -3 -3 -3 -3 -3 -3 -3 -3 -3 -3 -3
-3 -3 -3 -3 -3 -3 -3 -3 -3 -3 -3 -3 -3 -3 -3 -3 -3 -4 -4 -3 -3 -3 -3 -3 -3 -3 -3 -3 -3 -3 -3 -3 -3 -3 -4 -4 -4 -4 -4 -4 -4 -4 -4 -4
-3 -3 -3 -3 -3 -3 -3 -3 -4 -4 -4 -4 -4 -4 -4 -4 -4 -4 -4 -4 -4 -4 -4 -4 -4 -4 -4 -4 -4 -4 -4 -4 -4 -4 -4 -4 -4 -4 -4 -4 -4 -4 -5 -5
-3 -3 -3 -3 -4 -4 -4 -4 -4 -4 -4 -4 -4 -4 -4 -4 -4 -4 -4 -4 -4 -4 -5 -5 -5 -5 -5 -5 -5 -5 -5 -5 -5 -5 -5 -5 -5 -5 -5 -5 -5 -5 -5 -5
-3 -3 -3 -3 -4 -4 -4 -4 -4 -4 -4 -4 -4 -4 -4 -4 -4 -5 -5 -5 -5 -5 -5 -5 -5 -5 -5 -5 -5 -5 -5 -5 -5 -5 -5 -5 -5 -5 -6 -6 -6 -6 -6 -6
Wind_Speed
5 5 5 7 9 11 12 11 9 9 10 10 8 7 6 6 5 5 5 6 7 7 7 7 7 6 6 5 5 5 5 5 4 4 3 3 3 3 3 3 3 3 3 3
3 3 5 7 10 12 13 13 14 14 13 11 9 8 8 8 7 7 8 7 7 7 8 8 8 7 7 6 6 6 5 5 5 5 4 4 4 3 3 3 3 3 3 3
3 4 4 5 8 11 10 10 10 12 11 10 9 8 8 7 8 8 8 8 8 8 8 8 8 8 8 7 7 6 6 5 6 5 5 5 4 4 4 3 3 3 3 4
3 3 4 3 3 5 8 8 10 11 11 10 8 6 6 6 7 7 7 7 8 7 7 7 7 7 7 7 7 7 6 6 6 6 6 5 5 4 4 3 3 3 3 4
2 3 4 4 3 3 4 4 5 7 8 7 4 3 3 3 4 5 6 5 5 5 6 6 7 7 7 7 7 7 7 7 7 7 7 6 6 5 4 4 4 3 3 4
3 3 3 3 5 3 3 2 5 5 5 4 2 2 2 4 3 2 1 2 2 3 4 5 6 7 7 7 7 8 7 7 7 7 7 7 6 6 5 5 4 4 4 4
4 4 3 5 6 2 3 3 6 6 5 3 1 2 3 4 4 3 2 2 2 3 4 4 5 6 6 6 7 6 5 6 6 7 7 7 6 6 5 5 5 4 4 3
3 4 3 4 3 1 4 5 5 5 5 3 2 2 3 3 3 3 3 3 2 2 2 3 4 5 5 5 5 5 5 6 6 7 6 6 6 6 6 6 6 5 5 4
3 3 4 4 4 5 5 5 5 5 5 3 2 2 2 2 2 3 3 2 2 2 2 2 3 4 4 4 4 5 6 6 6 6 6 6 7 7 6 6 5 5 5 5
5 5 7 6 6 6 6 6 7 6 5 3 2 2 1 1 1 2 2 2 1 1 1 1 2 3 3 3 5 6 6 6 6 6 6 6 6 6 6 6 6 6 6 6
7 7 8 6 6 7 7 6 6 6 4 3 2 2 2 2 1 1 1 1 1 1 1 2 2 3 3 4 5 6 6 6 6 6 6 6 6 6 7 7 7 7 6 6
5 7 7 9 10 10 8 8 7 7 5 4 3 3 2 2 2 2 2 1 2 2 2 2 2 3 3 4 5 6 6 6 5 6 6 6 6 5 7 7 9 10 9 7
8 10 10 11 11 9 8 8 7 6 5 4 3 3 2 2 2 2 2 2 2 3 3 3 3 3 3 3 5 7 7 6 5 6 6 6 6 6 5 6 9 11 12 12
9 9 9 8 9 9 8 7 6 5 3 3 3 3 2 2 2 3 3 3 3 3 3 3 3 3 2 3 4 6 6 6 6 6 6 6 6 6 6 6 5 5 9 13
8 8 9 9 8 8 7 5 4 4 3 3 3 3 2 3 3 3 3 3 3 2 2 2 3 3 2 3 4 5 5 5 5 5 5 6 6 6 6 6 6 5 4 6
11 9 7 7 7 7 6 5 5 5 4 4 3 3 3 3 3 3 3 2 2 3 3 3 3 3 3 3 4 4 4 6 5 5 5 5 6 6 6 7 7 6 7 6
8 7 7 8 8 7 7 6 5 5 4 4 4 3 3 3 3 3 3 3 3 3 3 3 4 4 3 3 4 3 3 4 6 5 5 5 6 7 7 7 7 7 7 8
7 8 8 8 8 8 7 6 5 4 4 4 3 3 3 3 4 4 4 4 3 3 2 3 4 4 3 3 3 3 3 3 4 5 5 5 6 6 6 7 8 8 7 7
7 7 7 7 6 6 5 5 4 4 3 2 2 3 3 3 4 4 4 4 3 4 4 4 6 4 4 4 3 3 3 4 4 4 4 6 6 5 6 6 7 7 6 6
7 6 6 6 5 4 4 4 4 3 3 2 3 3 4 4 4 4 4 4 3 3 5 5 5 4 4 4 4 3 4 4 5 4 5 5 5 6 6 6 6 6 6 6
7 7 6 5 5 4 4 4 3 3 3 3 3 4 4 5 4 4 3 3 3 4 5 6 4 4 4 4 4 3 4 4 4 5 5 5 5 6 6 6 6 6 6 6
7 6 6 6 5 5 4 4 3 4 3 3 3 3 4 4 4 4 3 3 4 6 5 4 4 5 6 5 3 4 4 4 4 4 4 4 5 5 6 6 6 6 6 6
7 6 6 6 5 5 4 4 4 4 4 4 4 4 4 4 4 4 4 3 4 7 6 5 7 9 8 4 3 4 4 5 4 4 4 4 5 5 5 6 6 6 6 6
7 6 6 5 4 5 5 5 4 4 4 4 4 4 4 3 3 3 3 6 7 8 5 6 9 8 6 3 3 4 4 4 4 4 4 4 4 5 5 5 5 5 6 6
7 6 6 5 5 5 5 5 4 4 4 3 4 3 3 3 3 4 4 5 7 7 5 6 8 7 4 3 3 3 4 4 4 4 4 4 4 5 5 5 5 5 5 6
7 6 5 5 5 4 4 4 4 3 3 3 3 3 2 2 3 4 4 4 5 6 5 4 5 5 3 4 4 4 4 4 4 4 4 4 5 5 5 5 6 5 5 6
6 5 4 5 4 4 4 4 4 4 3 3 3 3 2 3 3 3 4 4 4 4 4 4 4 4 4 4 4 4 4 3 4 4 4 4 4 4 5 5 5 5 5 5
Wind_Direction
269 260 233 234 224 218 223 235 248 257 259 265 271 271 269 259 248 231 214 203 196 193 189 184 180 178 176 171 166 163 162 163 161 152 144 139 134 126 120 117 112 110 109 104
277 264 242 249 240 231 235 242 250 261 268 271 277 273 264 256 244 233 227 219 211 205 201 196 192 187 182 179 173 171 173 172 164 159 156 154 148 141 135 129 123 121 121 119
285 289 271 271 255 234 233 234 242 252 264 277 274 267 263 258 246 238 234 227 219 213 209 205 199 191 187 182 174 176 179 176 173 170 167 164 157 153 150 141 133 130 125 119
290 278 262 302 310 259 245 254 253 260 271 276 277 287 293 279 258 245 237 230 223 217 212 205 195 188 183 176 177 180 183 183 179 177 174 169 167 166 160 151 147 142 135 132
268 267 275 298 305 277 247 274 290 274 278 282 281 276 293 315 281 258 247 237 227 217 206 195 188 180 175 178 183 188 192 189 185 182 179 177 177 174 165 158 155 154 150 151
260 267 278 330 339 328 257 281 350 326 308 301 279 256 329 9 355 336 290 226 203 187 178 179 176 172 176 184 191 200 198 191 185 184 184 184 182 176 171 168 166 160 156 162
255 261 278 330 327 287 240 344 348 341 330 323 291 316 347 358 8 16 37 79 130 148 158 164 165 172 184 193 204 202 189 184 183 184 185 183 177 176 173 170 167 166 165 170
245 241 264 355 359 331 326 335 337 339 339 337 336 355 358 9 23 35 49 66 95 123 130 145 166 179 192 205 200 183 180 183 183 182 179 176 176 175 176 174 174 177 179 183
267 277 325 328 315 321 325 316 325 331 333 330 334 350 355 6 21 32 41 50 61 100 121 151 182 196 206 202 182 179 183 186 185 182 181 180 181 180 179 184 189 192 192 197
280 286 305 314 328 331 332 322 321 321 321 320 316 325 341 351 7 18 22 28 38 75 150 199 206 217 220 199 185 186 189 189 185 185 186 185 187 190 192 194 197 199 202 205
279 297 307 307 325 331 332 335 336 333 326 317 309 310 314 309 319 331 339 343 322 269 263 263 242 233 222 202 192 194 195 194 192 194 192 192 197 203 206 208 206 205 208 207
289 309 300 301 312 314 311 313 315 314 316 321 306 291 298 291 298 300 301 308 297 286 277 273 257 244 226 207 199 198 200 201 200 197 197 197 197 208 218 221 219 221 221 217
285 295 290 289 298 305 302 301 301 301 297 301 310 296 285 286 291 295 293 294 291 288 282 275 263 252 234 216 208 209 210 206 203 203 202 201 200 202 208 215 223 227 227 225
296 298 290 291 296 304 303 300 298 297 299 301 304 301 291 295 301 294 294 297 296 287 279 273 266 263 259 229 217 218 216 211 208 210 206 205 205 206 207 207 211 222 225 227
309 303 291 295 299 303 307 301 292 291 299 309 311 306 301 295 293 298 306 309 297 284 285 284 276 282 281 242 226 224 218 215 212 211 207 207 207 207 211 215 221 222 212 220
309 305 298 298 302 307 311 306 292 290 295 297 298 304 305 300 298 302 310 310 297 290 293 288 285 295 287 252 236 231 228 222 213 210 208 207 207 210 214 215 220 223 223 219
307 309 311 309 305 303 301 298 294 289 291 292 298 305 307 308 305 308 313 311 298 295 298 294 299 305 286 261 245 237 235 226 216 216 215 213 214 216 217 218 221 226 228 220
292 293 294 293 295 297 298 299 298 294 291 295 299 300 301 300 299 303 308 308 303 300 309 317 316 309 288 271 259 245 233 231 224 224 222 219 222 222 222 224 227 232 234 227
307 305 302 299 297 294 294 297 301 303 304 301 298 300 303 301 303 303 303 296 293 297 316 322 317 308 296 279 266 250 240 235 233 232 229 230 229 227 227 230 233 234 233 227
310 310 309 307 313 309 304 306 305 303 307 304 300 299 300 303 304 303 298 285 286 304 312 312 309 302 298 284 270 256 244 239 237 236 233 232 233 234 233 234 236 238 237 236
309 308 307 307 311 312 305 301 298 298 305 302 293 293 298 303 304 300 295 289 307 319 312 306 303 300 297 298 280 265 253 247 243 240 236 235 237 239 240 240 241 242 243 243
300 297 296 296 296 300 305 304 299 297 298 299 299 299 301 305 309 304 289 288 308 315 314 302 300 300 304 301 281 269 263 257 252 249 245 243 243 245 246 246 247 247 246 247
292 287 286 284 282 287 293 292 290 289 288 289 290 293 295 297 299 295 298 310 313 315 314 303 305 305 304 294 280 271 265 259 256 254 253 251 250 252 254 254 253 251 250 250
286 280 277 277 273 272 278 283 280 279 279 280 280 283 287 292 292 286 295 306 315 314 309 309 312 310 305 291 282 277 270 265 262 261 261 259 258 257 258 259 259 258 256 255
280 274 269 266 264 266 271 278 278 272 273 275 280 283 284 281 284 296 303 306 313 315 311 313 317 317 312 298 290 285 282 277 276 274 266 263 262 262 262 262 262 263 261 260
276 271 267 263 262 266 266 264 265 267 268 274 282 284 291 295 295 297 301 306 310 314 314 310 313 316 312 304 297 292 289 288 284 278 271 269 267 266 266 265 265 264 264 264
273 269 267 267 261 252 250 251 255 258 257 263 276 280 294 303 302 305 309 311 314 313 311 311 312 312 310 308 304 300 296 292 287 282 278 273 271 270 270 268 267 266 266 266
Height
1480 1479 1479 1478 1478 1479 1480 1476 1473 1467 1466 1463 1464 1465 1466 1467 1468 1468 1469 1469 1470 1472 1473 1475 1477 1479 1481 1483 1484 1485 1487 1487 1488 1488 1489 1489 1490 1490 1490 1490 1490 1490 1490 1490
1477 1477 1477 1476 1474 1475 1475 1474 1471 1468 1465 1463 1465 1465 1465 1465 1465 1466 1467 1468 1469 1470 1472 1474 1475 1477 1479 1480 1482 1483 1484 1485 1485 1485 1486 1486 1487 1487 1487 1487 1487 1487 1487 1487
1474 1475 1474 1471 1469 1469 1469 1468 1467 1465 1462 1461 1462 1462 1462 1462 1463 1463 1464 1465 1466 1468 1470 1471 1473 1475 1476 1478 1479 1480 1481 1482 1482 1482 1483 1483 1483 1484 1484 1484 1484 1484 1484 1484
1477 1475 1475 1470 1468 1467 1466 1465 1465 1463 1461 1461 1460 1460 1460 1460 1460 1460 1461 1462 1464 1465 1467 1469 1471 1472 1474 1475 1476 1477 1478 1479 1479 1479 1480 1480 1480 1481 1481 1481 1481 1482 1482 1482
1478 1472 1467 1467 1467 1468 1466 1463 1463 1462 1460 1459 1459 1459 1458 1457 1457 1458 1458 1460 1461 1463 1464 1466 1468 1469 1471 1472 1473 1474 1475 1475 1476 1476 1477 1477 1477 1478 1478 1479 1479 1479 1479 1479
1478 1474 1470 1468 1468 1468 1468 1463 1463 1462 1460 1459 1459 1456 1457 1457 1456 1456 1456 1457 1458 1460 1461 1463 1465 1466 1468 1469 1470 1471 1471 1472 1472 1473 1473 1474 1475 1475 1476 1476 1476 1477 1477 1477
1477 1474 1468 1471 1470 1469 1466 1465 1465 1463 1462 1460 1459 1459 1459 1457 1456 1456 1456 1456 1457 1458 1459 1461 1462 1463 1465 1466 1467 1468 1468 1468 1469 1469 1470 1471 1471 1472 1473 1473 1474 1474 1474 1475
1475 1473 1473 1472 1470 1470 1469 1468 1466 1464 1462 1461 1460 1459 1458 1457 1456 1456 1455 1456 1456 1457 1458 1459 1460 1461 1462 1463 1464 1464 1464 1465 1465 1466 1467 1467 1468 1469 1470 1470 1471 1471 1472 1472
1477 1476 1475 1474 1473 1472 1470 1468 1467 1465 1463 1462 1460 1459 1458 1457 1456 1456 1456 1455 1456 1456 1457 1457 1458 1459 1460 1460 1460 1461 1461 1461 1462 1463 1463 1464 1465 1466 1467 1467 1468 1468 1469 1470
1479 1475 1475 1474 1472 1471 1470 1468 1466 1464 1463 1461 1460 1459 1458 1457 1456 1456 1456 1455 1455 1455 1455 1456 1456 1456 1457 1457 1457 1457 1458 1458 1459 1459 1460 1461 1462 1463 1463 1464 1465 1465 1466 1467
1478 1476 1474 1472 1471 1470 1468 1466 1465 1463 1462 1461 1460 1458 1457 1456 1456 1455 1455 1454 1454 1454 1454 1454 1454 1454 1454 1454 1454 1454 1455 1455 1456 1456 1457 1458 1459 1459 1460 1461 1462 1463 1463 1464
1478 1477 1476 1472 1470 1469 1467 1465 1463 1461 1460 1459 1458 1457 1456 1455 1455 1454 1453 1453 1452 1452 1451 1451 1451 1451 1451 1451 1451 1451 1451 1452 1452 1453 1453 1454 1455 1456 1456 1457 1458 1459 1459 1460
1479 1476 1474 1470 1468 1466 1464 1462 1460 1459 1458 1457 1456 1455 1454 1453 1452 1452 1451 1450 1449 1449 1448 1448 1447 1447 1447 1447 1447 1447 1448 1448 1448 1449 1450 1450 1451 1452 1452 1454 1454 1455 1455 1456
1476 1473 1470 1467 1465 1463 1461 1459 1457 1456 1455 1454 1453 1452 1451 1450 1449 1449 1448 1447 1446 1446 1445 1444 1444 1443 1443 1443 1443 1443 1444 1444 1444 1445 1446 1446 1447 1448 1449 1449 1450 1450 1451 1452
1472 1470 1467 1464 1461 1459 1457 1456 1454 1453 1452 1451 1450 1449 1448 1447 1446 1446 1445 1444 1443 1442 1441 1441 1440 1440 1439 1439 1439 1439 1439 1440 1440 1440 1441 1442 1443 1444 1444 1445 1445 1446 1447 1447
1469 1466 1463 1461 1458 1456 1455 1453 1451 1450 1449 1448 1447 1446 1445 1444 1443 1442 1441 1440 1440 1439 1438 1437 1437 1436 1436 1435 1435 1435 1435 1435 1436 1436 1437 1438 1438 1439 1440 1440 1441 1441 1442 1442
1466 1463 1460 1458 1456 1454 1452 1451 1449 1447 1446 1445 1444 1443 1442 1441 1440 1439 1438 1437 1436 1435 1435 1434 1433 1433 1432 1432 1431 1431 1431 1431 1431 1432 1432 1433 1434 1434 1435 1436 1436 1436 1437 1437
1464 1461 1459 1456 1454 1452 1450 1448 1446 1445 1444 1442 1441 1440 1439 1438 1437 1436 1435 1434 1433 1432 1431 1430 1429 1429 1428 1428 1427 1427 1427 1427 1427 1427 1428 1428 1429 1430 1430 1430 1431 1431 1431 1432
1460 1458 1456 1453 1451 1449 1447 1445 1444 1443 1441 1440 1439 1438 1436 1435 1434 1433 1432 1431 1429 1428 1427 1426 1425 1425 1424 1424 1423 1423 1423 1423 1423 1423 1423 1423 1424 1424 1425 1425 1425 1426 1426 1426
1457 1455 1453 1450 1448 1446 1444 1443 1441 1440 1439 1437 1436 1435 1434 1432 1431 1430 1428 1427 1426 1425 1424 1422 1421 1421 1420 1420 1419 1419 1419 1419 1419 1418 1419 1419 1419 1419 1419 1419 1420 1420 1420 1420
1454 1452 1450 1448 1446 1444 1442 1440 1439 1437 1436 1435 1433 1432 1430 1429 1428 1427 1425 1424 1423 1421 1420 1419 1418 1417 1416 1415 1415 1415 1414 1414 1414 1414 1414 1414 1414 1414 1414 1414 1414 1414 1413 1413
1451 1449 1447 1445 1443 1441 1440 1438 1436 1435 1433 1432 1430 1429 1428 1426 1425 1423 1422 1421 1419 1418 1416 1415 1414 1413 1412 1411 1411 1410 1410 1409 1409 1409 1409 1409 1409 1408 1408 1408 1408 1407 1407 1406
1448 1446 1444 1442 1440 1439 1437 1435 1434 1432 1431 1429 1428 1426 1425 1423 1422 1420 1419 1418 1416 1414 1413 1411 1410 1409 1408 1407 1406 1406 1405 1405 1405 1404 1404 1404 1403 1403 1403 1402 1402 1401 1401 1400
1444 1442 1440 1439 1437 1435 1434 1432 1431 1429 1428 1426 1425 1423 1422 1420 1419 1417 1416 1414 1412 1411 1409 1407 1406 1405 1404 1403 1402 1402 1401 1400 1400 1400 1399 1399 1398 1398 1397 1397 1396 1395 1395 1394
1440 1438 1436 1435 1433 1432 1430 1429 1428 1426 1425 1423 1422 1420 1419 1417 1416 1414 1412 1411 1409 1407 1405 1404 1403 1401 1400 1399 1398 1397 1397 1396 1396 1395 1395 1394 1393 1393 1392 1391 1390 1390 1389 1388
1435 1433 1432 1430 1429 1428 1426 1425 1424 1423 1421 1420 1419 1417 1416 1414 1413 1411 1409 1408 1406 1404 1402 1401 1399 1398 1397 1396 1395 1394 1393 1392 1392 1391 1390 1390 1389 1388 1387 1386 1385 1384 1383 1382
1430 1429 1427 1426 1425 1424 1423 1421 1420 1419 1418 1416 1415 1414 1413 1411 1410 1408 1406 1405 1403 1401 1400 1398 1396 1395 1394 1393 1392 1390 1390 1389 1388 1387 1386 1385 1385 1384 1383 1382 1381 1380 1379 1377